This is the latest recevied weather packets stored in our database for station/object N5SNT-2. If no packets are shown the sender has not sent any weather packets the latest 10 day(s).
| Time | Temp. | Humidity | Pressure | Rain* | Wind** | Luminosity | Snow |
|---|---|---|---|---|---|---|---|
| 1778006244 | 25.56° C | 81% | 1010 hPa | 0 mm | - | 501 W/m² | - |
| 1778005945 | 25.56° C | 81% | 1010 hPa | 0 mm | - | 325 W/m² | - |
| 1778005046 | 25.56° C | 82% | 1010 hPa | 0 mm | - | 278 W/m² | - |
| 1778004744 | 25.56° C | 82% | 1010 hPa | 0 mm | - | 322 W/m² | - |
| 1778004443 | 25.56° C | 82% | 1010 hPa | 0 mm | - | 365 W/m² | - |
| 1778003544 | 25.56° C | 83% | 1010 hPa | 0 mm | - | 343 W/m² | - |
| 1778003243 | 25° C | 84% | 1010 hPa | 0 mm | - | 349 W/m² | - |
| 1778002647 | 25° C | 84% | 1011 hPa | 0 mm | - | 272 W/m² | - |
| 1778002344 | 24.44° C | 85% | 1011 hPa | 0 mm | - | 364 W/m² | - |
| 1778002044 | 24.44° C | 85% | 1011 hPa | 0 mm | - | 293 W/m² | - |
| 1778001747 | 24.44° C | 86% | 1011 hPa | 0 mm | - | 226 W/m² | - |
| 1778001444 | 25° C | 86% | 1011 hPa | 0 mm | - | 199 W/m² | - |
| 1778000844 | 24.44° C | 86% | 1011 hPa | 0 mm | - | 302 W/m² | - |
| 1778000543 | 23.89° C | 86% | 1011 hPa | 0 mm | - | 348 W/m² | - |
| 1777999944 | 23.89° C | 88% | 1011 hPa | 0 mm | - | 179 W/m² | - |
| 1777999344 | 23.89° C | 88% | 1011 hPa | 0 mm | - | 232 W/m² | - |
| 1777999044 | 23.89° C | 88% | 1011 hPa | 0 mm | - | 224 W/m² | - |
| 1777998444 | 23.33° C | 89% | 1011 hPa | 0 mm | - | 202 W/m² | - |
| 1777998144 | 23.89° C | 88% | 1011 hPa | 0 mm | - | 255 W/m² | - |
| 1777997844 | 23.33° C | 89% | 1011 hPa | 0 mm | - | 219 W/m² | - |
| 1777997245 | 23.33° C | 90% | 1011 hPa | 0 mm | - | 242 W/m² | - |
| 1777994545 | 22.78° C | 92% | 1011 hPa | 0 mm | - | 134 W/m² | - |
| 1777994243 | 22.78° C | 92% | 1011 hPa | 0 mm | - | 120 W/m² | - |
| 1777993644 | 22.22° C | 93% | 1011 hPa | 0 mm | - | 155 W/m² | - |
| 1777993044 | 21.67° C | 94% | 1011 hPa | 0 mm | - | 117 W/m² | - |
* Rain latest hour (hover to see other rain measurements)
** Current wind speed in m/s (hover to see current wind gust speed)